Time,TemperatureF,DewpointF,PressureIn,WindDirection,WindDirectionDegrees,WindSpeedMPH,WindSpeedGustMPH,Humidity,HourlyPrecipIn,Conditions,Clouds,dailyrainin,SoftwareType,DateUTC
2013-05-29 00:00:00,66.7,58.5,30.12,WNW,287,0.0,4.0,75,0.00,,---,0.00,VWS V14.00,2013-05-29 04:00:00,
2013-05-29 00:01:00,66.7,58.9,30.12,WNW,287,0.0,4.0,76,0.00,,---,0.00,VWS V14.00,2013-05-29 04:01:00,
2013-05-29 00:06:00,66.5,58.7,30.12,WNW,303,0.0,4.0,76,0.00,,---,0.00,VWS V14.00,2013-05-29 04:06:00,
2013-05-29 00:11:00,66.4,59.0,30.12,NW,323,0.0,3.0,77,0.00,,---,0.00,VWS V14.00,2013-05-29 04:11:00,
2013-05-29 00:16:00,66.3,58.9,30.12,NW,306,2.0,4.0,77,0.00,,---,0.00,VWS V14.00,2013-05-29 04:16:00,
2013-05-29 00:21:00,66.2,59.2,30.11,NW,309,0.0,4.0,78,0.00,,---,0.00,VWS V14.00,2013-05-29 04:21:00,
2013-05-29 00:26:00,66.1,59.0,30.11,NW,313,0.0,4.0,78,0.00,,---,0.00,VWS V14.00,2013-05-29 04:26:00,
2013-05-29 00:31:00,66.0,59.3,30.11,NW,323,0.0,4.0,79,0.00,,---,0.00,VWS V14.00,2013-05-29 04:31:00,
2013-05-29 00:36:00,66.0,59.3,30.11,NNW,336,0.0,4.0,79,0.00,,---,0.00,VWS V14.00,2013-05-29 04:36:00,
2013-05-29 00:41:00,65.8,59.1,30.11,NNW,340,0.0,3.0,79,0.00,,---,0.00,VWS V14.00,2013-05-29 04:41:00,
2013-05-29 00:46:00,65.8,59.1,30.11,NW,304,0.0,3.0,79,0.00,,---,0.00,VWS V14.00,2013-05-29 04:46:00,
2013-05-29 00:51:00,65.7,59.4,30.10,WNW,303,0.0,3.0,80,0.00,,---,0.00,VWS V14.00,2013-05-29 04:51:00,
2013-05-29 00:56:00,65.7,59.4,30.11,NW,306,0.0,3.0,80,0.00,,---,0.00,VWS V14.00,2013-05-29 04:56:00,
2013-05-29 01:01:00,65.6,59.3,30.11,NW,306,0.0,3.0,80,0.00,,---,0.00,VWS V14.00,2013-05-29 05:01:00,
2013-05-29 01:06:00,65.5,59.5,30.11,NW,309,0.0,3.0,81,0.00,,---,0.00,VWS V14.00,2013-05-29 05:06:00,
2013-05-29 01:11:00,65.4,59.4,30.11,NW,309,0.0,2.0,81,0.00,,---,0.00,VWS V14.00,2013-05-29 05:11:00,
2013-05-29 01:16:00,65.3,59.3,30.11,NW,309,0.0,2.0,81,0.00,,---,0.00,VWS V14.00,2013-05-29 05:16:00,
2013-05-29 01:21:00,65.2,59.2,30.10,NW,313,0.0,2.0,81,0.00,,---,0.00,VWS V14.00,2013-05-29 05:21:00,
2013-05-29 01:26:00,65.0,59.4,30.10,NW,313,0.0,2.0,82,0.00,,---,0.00,VWS V14.00,2013-05-29 05:26:00,
2013-05-29 01:31:00,65.0,59.4,30.10,NW,313,1.0,2.0,82,0.00,,---,0.00,VWS V14.00,2013-05-29 05:31:00,
2013-05-29 01:36:00,64.9,59.3,30.10,NNW,345,0.0,3.0,82,0.00,,---,0.00,VWS V14.00,2013-05-29 05:36:00,
2013-05-29 01:41:00,64.9,59.3,30.10,NE,46,0.0,3.0,82,0.00,,---,0.00,VWS V14.00,2013-05-29 05:41:00,
2013-05-29 01:46:00,64.8,59.2,30.11,NNW,329,0.0,4.0,82,0.00,,---,0.00,VWS V14.00,2013-05-29 05:46:00,
2013-05-29 01:51:00,64.8,59.5,30.10,North,9,4.0,4.0,83,0.00,,---,0.00,VWS V14.00,2013-05-29 05:51:00,
2013-05-29 01:56:00,64.8,59.5,30.10,NW,325,0.0,4.0,83,0.00,,---,0.00,VWS V14.00,2013-05-29 05:56:00,
2013-05-29 02:01:00,64.9,59.6,30.10,NNW,342,0.0,4.0,83,0.00,,---,0.00,VWS V14.00,2013-05-29 06:01:00,
2013-05-29 02:06:00,64.9,59.6,30.10,NNW,344,0.0,4.0,83,0.00,,---,0.00,VWS V14.00,2013-05-29 06:06:00,
2013-05-29 02:11:00,64.9,59.6,30.09,NW,323,0.0,2.0,83,0.00,,---,0.00,VWS V14.00,2013-05-29 06:11:00,
2013-05-29 02:16:00,64.8,59.5,30.09,NNE,21,0.0,4.0,83,0.00,,---,0.00,VWS V14.00,2013-05-29 06:16:00,
2013-05-29 02:21:00,64.8,59.5,30.09,NNE,21,0.0,4.0,83,0.00,,---,0.00,VWS V14.00,2013-05-29 06:21:00,
2013-05-29 02:26:00,64.7,59.4,30.09,North,5,0.0,4.0,83,0.00,,---,0.00,VWS V14.00,2013-05-29 06:26:00,
2013-05-29 02:31:00,64.6,59.3,30.09,North,5,0.0,4.0,83,0.00,,---,0.00,VWS V14.00,2013-05-29 06:31:00,
2013-05-29 02:36:00,64.5,59.2,30.09,North,360,0.0,4.0,83,0.00,,---,0.00,VWS V14.00,2013-05-29 06:36:00,
2013-05-29 02:41:00,64.4,59.1,30.09,NNE,30,0.0,5.0,83,0.00,,---,0.00,VWS V14.00,2013-05-29 06:41:00,
2013-05-29 02:46:00,64.3,59.0,30.10,NNW,340,0.0,5.0,83,0.00,,---,0.00,VWS V14.00,2013-05-29 06:46:00,
2013-05-29 02:51:00,64.3,59.0,30.10,NNW,340,0.0,5.0,83,0.00,,---,0.00,VWS V14.00,2013-05-29 06:51:00,
2013-05-29 02:56:00,64.2,59.3,30.10,ESE,114,0.0,5.0,84,0.00,,---,0.00,VWS V14.00,2013-05-29 06:56:00,
2013-05-29 03:01:00,64.1,59.2,30.10,ESE,114,0.0,5.0,84,0.00,,---,0.00,VWS V14.00,2013-05-29 07:01:00,
2013-05-29 03:06:00,64.0,59.1,30.10,ESE,114,0.0,5.0,84,0.00,,---,0.00,VWS V14.00,2013-05-29 07:06:00,
2013-05-29 03:11:00,63.6,58.7,30.12,ESE,114,0.0,1.0,84,0.00,,---,0.00,VWS V14.00,2013-05-29 07:11:00,
2013-05-29 03:16:00,63.4,58.5,30.12,ESE,114,0.0,1.0,84,0.00,,---,0.00,VWS V14.00,2013-05-29 07:16:00,
2013-05-29 03:21:00,63.1,58.2,30.11,ESE,114,0.0,1.0,84,0.00,,---,0.00,VWS V14.00,2013-05-29 07:21:00,
2013-05-29 03:26:00,62.8,58.2,30.12,ESE,114,0.0,1.0,85,0.00,,---,0.00,VWS V14.00,2013-05-29 07:26:00,
2013-05-29 03:31:00,62.6,58.7,30.12,ESE,114,0.0,1.0,87,0.00,,---,0.00,VWS V14.00,2013-05-29 07:31:00,
2013-05-29 03:36:00,62.5,58.6,30.12,ESE,114,0.0,1.0,87,0.00,,---,0.00,VWS V14.00,2013-05-29 07:36:00,
2013-05-29 03:41:00,62.4,58.8,30.12,ESE,114,0.0,1.0,88,0.00,,---,0.00,VWS V14.00,2013-05-29 07:41:00,
2013-05-29 03:46:00,62.3,58.7,30.13,ESE,114,0.0,2.0,88,0.00,,---,0.00,VWS V14.00,2013-05-29 07:46:00,
2013-05-29 03:51:00,62.2,58.6,30.13,ESE,114,0.0,2.0,88,0.00,,---,0.00,VWS V14.00,2013-05-29 07:51:00,
2013-05-29 03:56:00,62.2,58.6,30.12,ESE,114,0.0,2.0,88,0.00,,---,0.00,VWS V14.00,2013-05-29 07:56:00,
2013-05-29 04:01:00,62.1,58.5,30.12,ESE,114,0.0,2.0,88,0.00,,---,0.00,VWS V14.00,2013-05-29 08:01:00,
2013-05-29 04:06:00,62.0,58.4,30.13,ESE,114,0.0,2.0,88,0.00,,---,0.00,VWS V14.00,2013-05-29 08:06:00,
2013-05-29 04:11:00,61.9,58.6,30.13,ESE,114,0.0,0.0,89,0.00,,---,0.00,VWS V14.00,2013-05-29 08:11:00,
2013-05-29 04:16:00,61.8,58.5,30.13,ESE,114,0.0,0.0,89,0.00,,---,0.00,VWS V14.00,2013-05-29 08:16:00,
2013-05-29 04:21:00,61.7,58.4,30.14,ESE,114,0.0,0.0,89,0.00,,---,0.00,VWS V14.00,2013-05-29 08:21:00,
2013-05-29 04:26:00,61.6,58.3,30.14,ESE,114,0.0,0.0,89,0.00,,---,0.00,VWS V14.00,2013-05-29 08:26:00,
2013-05-29 04:31:00,61.4,58.1,30.14,ESE,114,0.0,1.0,89,0.00,,---,0.00,VWS V14.00,2013-05-29 08:31:00,
2013-05-29 04:36:00,61.3,58.0,30.15,ESE,114,0.0,1.0,89,0.00,,---,0.00,VWS V14.00,2013-05-29 08:36:00,
2013-05-29 04:41:00,61.2,58.2,30.15,ESE,114,1.0,2.0,90,0.00,,---,0.00,VWS V14.00,2013-05-29 08:41:00,
2013-05-29 04:46:00,61.1,58.2,30.15,ESE,114,0.0,2.0,90,0.00,,---,0.00,VWS V14.00,2013-05-29 08:46:00,
2013-05-29 04:51:00,60.9,58.0,30.14,ESE,114,0.0,2.0,90,0.00,,---,0.00,VWS V14.00,2013-05-29 08:51:00,
2013-05-29 04:55:00,60.8,57.8,30.15,ESE,114,0.0,2.0,90,0.00,,---,0.00,VWS V14.00,2013-05-29 08:55:00,
2013-05-29 05:00:00,60.7,58.1,30.14,ESE,114,0.0,2.0,91,0.00,,---,0.00,VWS V14.00,2013-05-29 09:00:00,
2013-05-29 05:05:00,60.6,58.0,30.15,ESE,114,0.0,2.0,91,0.00,,---,0.00,VWS V14.00,2013-05-29 09:05:00,
2013-05-29 05:10:00,60.5,57.9,30.14,ESE,114,0.0,0.0,91,0.00,,---,0.00,VWS V14.00,2013-05-29 09:10:00,
2013-05-29 05:15:00,60.4,57.8,30.15,ESE,114,0.0,0.0,91,0.00,,---,0.00,VWS V14.00,2013-05-29 09:15:00,
2013-05-29 05:20:00,60.4,58.1,30.15,ESE,114,0.0,1.0,92,0.00,,---,0.00,VWS V14.00,2013-05-29 09:20:00,
2013-05-29 05:25:00,60.3,58.0,30.15,ESE,114,0.0,1.0,92,0.00,,---,0.00,VWS V14.00,2013-05-29 09:25:00,
2013-05-29 05:30:00,60.2,57.9,30.15,ESE,114,0.0,1.0,92,0.00,,---,0.00,VWS V14.00,2013-05-29 09:30:00,
2013-05-29 05:35:00,60.2,57.9,30.15,ESE,114,0.0,1.0,92,0.00,,---,0.00,VWS V14.00,2013-05-29 09:35:00,
2013-05-29 05:40:00,60.1,57.8,30.15,ESE,114,0.0,0.0,92,0.00,,---,0.00,VWS V14.00,2013-05-29 09:40:00,
2013-05-29 05:45:00,60.0,57.7,30.15,ESE,114,0.0,0.0,92,0.00,,---,0.00,VWS V14.00,2013-05-29 09:45:00,
2013-05-29 05:50:00,59.9,57.6,30.15,ESE,114,0.0,0.0,92,0.00,,---,0.00,VWS V14.00,2013-05-29 09:50:00,
2013-05-29 05:55:00,59.7,57.4,30.15,ESE,114,0.0,0.0,92,0.00,,---,0.00,VWS V14.00,2013-05-29 09:55:00,
2013-05-29 06:00:00,59.6,57.3,30.15,ESE,114,0.0,0.0,92,0.00,,---,0.00,VWS V14.00,2013-05-29 10:00:00,
2013-05-29 06:05:00,59.4,57.1,30.16,ESE,114,0.0,0.0,92,0.00,,---,0.00,VWS V14.00,2013-05-29 10:05:00,
2013-05-29 06:10:00,59.3,57.0,30.17,ESE,114,0.0,0.0,92,0.00,,---,0.00,VWS V14.00,2013-05-29 10:10:00,
2013-05-29 06:15:00,59.0,56.7,30.17,ESE,114,0.0,0.0,92,0.00,,---,0.00,VWS V14.00,2013-05-29 10:15:00,
2013-05-29 06:20:00,59.0,56.7,30.17,ESE,114,0.0,0.0,92,0.00,,---,0.00,VWS V14.00,2013-05-29 10:20:00,
2013-05-29 06:25:00,59.0,57.0,30.17,ESE,114,0.0,0.0,93,0.00,,---,0.00,VWS V14.00,2013-05-29 10:25:00,
2013-05-29 06:30:00,59.0,57.0,30.17,ESE,114,0.0,0.0,93,0.00,,---,0.00,VWS V14.00,2013-05-29 10:30:00,
2013-05-29 06:35:00,58.8,56.8,30.17,ESE,114,0.0,0.0,93,0.00,,---,0.00,VWS V14.00,2013-05-29 10:35:00,
2013-05-29 06:40:00,58.7,56.7,30.17,ESE,114,0.0,0.0,93,0.00,,---,0.00,VWS V14.00,2013-05-29 10:40:00,
2013-05-29 06:45:00,58.6,56.9,30.18,ESE,114,0.0,0.0,94,0.00,,---,0.00,VWS V14.00,2013-05-29 10:45:00,
2013-05-29 06:50:00,58.6,56.9,30.18,ESE,114,0.0,1.0,94,0.00,,---,0.00,VWS V14.00,2013-05-29 10:50:00,
2013-05-29 06:55:00,58.6,56.9,30.18,ESE,114,0.0,1.0,94,0.00,,---,0.00,VWS V14.00,2013-05-29 10:55:00,
2013-05-29 07:00:00,58.6,56.9,30.18,SSE,157,0.0,1.0,94,0.00,,---,0.00,VWS V14.00,2013-05-29 11:00:00,
2013-05-29 07:05:00,58.6,57.2,30.18,SSE,157,0.0,1.0,95,0.00,,---,0.00,VWS V14.00,2013-05-29 11:05:00,
2013-05-29 07:10:00,58.6,57.2,30.19,SSE,158,0.0,0.0,95,0.00,,---,0.00,VWS V14.00,2013-05-29 11:10:00,
2013-05-29 07:15:00,58.7,57.3,30.19,SSE,158,0.0,0.0,95,0.00,,---,0.00,VWS V14.00,2013-05-29 11:15:00,
2013-05-29 07:20:00,58.8,57.4,30.19,SSE,157,0.0,0.0,95,0.00,,---,0.00,VWS V14.00,2013-05-29 11:20:00,
2013-05-29 07:25:00,58.9,57.5,30.19,SSE,157,0.0,0.0,95,0.00,,---,0.00,VWS V14.00,2013-05-29 11:25:00,
2013-05-29 07:30:00,59.0,57.9,30.19,SSE,157,0.0,1.0,96,0.00,,---,0.00,VWS V14.00,2013-05-29 11:30:00,
2013-05-29 07:35:00,59.0,57.9,30.19,SSE,157,0.0,1.0,96,0.00,,---,0.00,VWS V14.00,2013-05-29 11:35:00,
2013-05-29 07:40:00,59.1,58.0,30.19,SSE,157,0.0,1.0,96,0.00,,---,0.00,VWS V14.00,2013-05-29 11:40:00,
2013-05-29 07:45:00,59.3,58.2,30.19,South,187,1.0,1.0,96,0.00,,---,0.00,VWS V14.00,2013-05-29 11:45:00,
2013-05-29 07:50:00,59.6,58.5,30.19,West,265,0.0,1.0,96,0.00,,---,0.00,VWS V14.00,2013-05-29 11:50:00,
2013-05-29 07:55:00,59.9,58.8,30.19,West,264,0.0,1.0,96,0.00,,---,0.00,VWS V14.00,2013-05-29 11:55:00,
2013-05-29 08:00:00,60.2,59.3,30.19,North,351,0.0,1.0,97,0.00,,---,0.00,VWS V14.00,2013-05-29 12:00:00,
2013-05-29 08:05:00,60.5,59.4,30.19,North,350,1.0,1.0,96,0.00,,---,0.00,VWS V14.00,2013-05-29 12:05:00,
2013-05-29 08:10:00,60.7,59.6,30.19,North,350,0.0,0.0,96,0.00,,---,0.00,VWS V14.00,2013-05-29 12:10:00,
2013-05-29 08:15:00,60.9,59.8,30.19,North,351,0.0,1.0,96,0.00,,---,0.00,VWS V14.00,2013-05-29 12:15:00,
2013-05-29 08:20:00,61.1,60.0,30.20,NE,38,0.0,1.0,96,0.00,,---,0.00,VWS V14.00,2013-05-29 12:20:00,
2013-05-29 08:25:00,61.3,59.9,30.20,ESE,123,0.0,1.0,95,0.00,,---,0.00,VWS V14.00,2013-05-29 12:25:00,
2013-05-29 08:30:00,61.7,60.3,30.20,NNW,334,0.0,1.0,95,0.00,,---,0.00,VWS V14.00,2013-05-29 12:30:00,
2013-05-29 08:35:00,62.1,60.4,30.20,SW,232,0.0,1.0,94,0.00,,---,0.00,VWS V14.00,2013-05-29 12:35:00,
2013-05-29 08:40:00,62.6,60.8,30.19,SSW,192,0.0,0.0,94,0.00,,---,0.00,VWS V14.00,2013-05-29 12:40:00,
2013-05-29 08:45:00,63.1,61.0,30.19,SSW,192,0.0,0.0,93,0.00,,---,0.00,VWS V14.00,2013-05-29 12:45:00,
2013-05-29 08:50:00,63.6,61.2,30.20,South,188,0.0,1.0,92,0.00,,---,0.00,VWS V14.00,2013-05-29 12:50:00,
2013-05-29 08:55:00,64.1,61.1,30.20,WSW,246,0.0,3.0,90,0.00,,---,0.00,VWS V14.00,2013-05-29 12:55:00,
2013-05-29 09:00:00,64.5,60.9,30.19,West,264,0.0,3.0,88,0.00,,---,0.00,VWS V14.00,2013-05-29 13:00:00,
2013-05-29 09:05:00,65.0,61.0,30.19,ENE,69,3.0,3.0,87,0.00,,---,0.00,VWS V14.00,2013-05-29 13:05:00,
2013-05-29 09:10:00,65.5,60.9,30.20,ESE,115,0.0,2.0,85,0.00,,---,0.00,VWS V14.00,2013-05-29 13:10:00,
2013-05-29 09:15:00,66.0,61.4,30.20,SSW,200,0.0,2.0,85,0.00,,---,0.00,VWS V14.00,2013-05-29 13:15:00,
2013-05-29 09:20:00,66.5,61.5,30.19,SSW,200,0.0,2.0,84,0.00,,---,0.00,VWS V14.00,2013-05-29 13:20:00,
2013-05-29 09:25:00,67.0,61.7,30.19,SSW,200,0.0,2.0,83,0.00,,---,0.00,VWS V14.00,2013-05-29 13:25:00,
2013-05-29 09:30:00,67.5,61.5,30.19,SW,223,0.0,2.0,81,0.00,,---,0.00,VWS V14.00,2013-05-29 13:30:00,
2013-05-29 09:35:00,68.1,62.4,30.20,SSW,205,0.0,2.0,82,0.00,,---,0.00,VWS V14.00,2013-05-29 13:35:00,
2013-05-29 09:40:00,68.6,62.5,30.19,SSW,205,0.0,0.0,81,0.00,,---,0.00,VWS V14.00,2013-05-29 13:40:00,
2013-05-29 09:45:00,69.1,63.0,30.19,South,189,0.0,3.0,81,0.00,,---,0.00,VWS V14.00,2013-05-29 13:45:00,
2013-05-29 09:50:00,69.5,62.0,30.19,SE,144,0.0,3.0,77,0.00,,---,0.00,VWS V14.00,2013-05-29 13:50:00,
2013-05-29 09:55:00,69.9,62.0,30.19,NNE,24,0.0,7.0,76,0.00,,---,0.00,VWS V14.00,2013-05-29 13:55:00,
2013-05-29 10:00:00,70.1,62.6,30.19,ESE,115,0.0,7.0,77,0.00,,---,0.00,VWS V14.00,2013-05-29 14:00:00,
2013-05-29 10:05:00,70.3,62.4,30.19,SE,126,0.0,7.0,76,0.00,,---,0.00,VWS V14.00,2013-05-29 14:05:00,
2013-05-29 10:10:00,70.6,62.7,30.19,WNW,302,2.0,2.0,76,0.00,,---,0.00,VWS V14.00,2013-05-29 14:10:00,
2013-05-29 10:15:00,70.8,62.9,30.19,WSW,240,1.0,3.0,76,0.00,,---,0.00,VWS V14.00,2013-05-29 14:15:00,
2013-05-29 10:20:00,71.0,62.7,30.19,WNW,296,0.0,4.0,75,0.00,,---,0.00,VWS V14.00,2013-05-29 14:20:00,
2013-05-29 10:25:00,71.3,62.6,30.19,South,184,0.0,5.0,74,0.00,,---,0.00,VWS V14.00,2013-05-29 14:25:00,
2013-05-29 10:30:00,71.5,62.4,30.18,SE,146,0.0,5.0,73,0.00,,---,0.00,VWS V14.00,2013-05-29 14:30:00,
2013-05-29 10:35:00,71.9,62.8,30.18,NE,40,0.0,5.0,73,0.00,,---,0.00,VWS V14.00,2013-05-29 14:35:00,
2013-05-29 10:40:00,72.3,62.4,30.18,SW,233,0.0,4.0,71,0.00,,---,0.00,VWS V14.00,2013-05-29 14:40:00,
2013-05-29 10:45:00,72.3,62.4,30.18,East,101,0.0,5.0,71,0.00,,---,0.00,VWS V14.00,2013-05-29 14:45:00,
2013-05-29 10:50:00,72.8,62.9,30.17,SSE,160,1.0,5.0,71,0.00,,---,0.00,VWS V14.00,2013-05-29 14:50:00,
2013-05-29 10:55:00,73.0,62.7,30.18,ESE,113,0.0,5.0,70,0.00,,---,0.00,VWS V14.00,2013-05-29 14:55:00,
2013-05-29 11:00:00,73.5,63.1,30.17,ESE,106,2.0,5.0,70,0.00,,---,0.00,VWS V14.00,2013-05-29 15:00:00,
2013-05-29 11:05:00,73.9,63.5,30.17,SSE,154,0.0,5.0,70,0.00,,---,0.00,VWS V14.00,2013-05-29 15:05:00,
2013-05-29 11:10:00,74.4,64.4,30.18,NW,310,1.0,3.0,71,0.00,,---,0.00,VWS V14.00,2013-05-29 15:10:00,
2013-05-29 11:15:00,74.8,63.1,30.18,WSW,238,3.0,5.0,67,0.00,,---,0.00,VWS V14.00,2013-05-29 15:15:00,
2013-05-29 11:20:00,75.1,65.1,30.17,NNE,24,3.0,5.0,71,0.00,,---,0.00,VWS V14.00,2013-05-29 15:20:00,
2013-05-29 11:25:00,75.3,64.0,30.17,SE,138,0.0,5.0,68,0.00,,---,0.00,VWS V14.00,2013-05-29 15:25:00,
2013-05-29 11:30:00,75.7,64.0,30.17,SE,137,0.0,5.0,67,0.00,,---,0.00,VWS V14.00,2013-05-29 15:30:00,
2013-05-29 11:35:00,75.8,65.7,30.17,North,11,2.0,5.0,71,0.00,,---,0.00,VWS V14.00,2013-05-29 15:35:00,
2013-05-29 11:40:00,76.3,64.1,30.17,ESE,111,0.0,2.0,66,0.00,,---,0.00,VWS V14.00,2013-05-29 15:40:00,
2013-05-29 11:45:00,76.9,66.0,30.17,ESE,111,1.0,2.0,69,0.00,,---,0.00,VWS V14.00,2013-05-29 15:45:00,
2013-05-29 11:50:00,77.1,65.3,30.16,South,170,5.0,6.0,67,0.00,,---,0.00,VWS V14.00,2013-05-29 15:50:00,
2013-05-29 11:55:00,77.8,65.1,30.16,ESE,104,0.0,6.0,65,0.00,,---,0.00,VWS V14.00,2013-05-29 15:55:00,
2013-05-29 12:00:00,78.7,65.1,30.16,SSE,168,1.0,6.0,63,0.00,,---,0.00,VWS V14.00,2013-05-29 16:00:00,
2013-05-29 12:05:00,78.9,64.8,30.15,ESE,115,0.0,6.0,62,0.00,,---,0.00,VWS V14.00,2013-05-29 16:05:00,
2013-05-29 12:10:00,79.2,65.5,30.16,SE,141,0.0,5.0,63,0.00,,---,0.00,VWS V14.00,2013-05-29 16:10:00,
2013-05-29 12:15:00,79.2,65.1,30.16,SSW,200,0.0,5.0,62,0.00,,---,0.00,VWS V14.00,2013-05-29 16:15:00,
2013-05-29 12:20:00,79.6,66.4,30.16,ESE,123,0.0,5.0,64,0.00,,---,0.00,VWS V14.00,2013-05-29 16:20:00,
2013-05-29 12:25:00,79.8,67.0,30.16,South,172,0.0,5.0,65,0.00,,---,0.00,VWS V14.00,2013-05-29 16:25:00,
2013-05-29 12:30:00,80.1,65.4,30.16,East,86,0.0,5.0,61,0.00,,---,0.00,VWS V14.00,2013-05-29 16:30:00,
2013-05-29 12:35:00,80.6,65.4,30.15,NE,54,0.0,5.0,60,0.00,,---,0.00,VWS V14.00,2013-05-29 16:35:00,
2013-05-29 12:40:00,80.7,65.5,30.15,East,92,0.0,4.0,60,0.00,,---,0.00,VWS V14.00,2013-05-29 16:40:00,
2013-05-29 12:45:00,80.7,64.6,30.15,NE,35,0.0,4.0,58,0.00,,---,0.00,VWS V14.00,2013-05-29 16:45:00,
2013-05-29 12:50:00,80.9,64.8,30.15,West,259,0.0,4.0,58,0.00,,---,0.00,VWS V14.00,2013-05-29 16:50:00,
2013-05-29 12:55:00,81.1,63.9,30.15,NE,51,0.0,4.0,56,0.00,,---,0.00,VWS V14.00,2013-05-29 16:55:00,
2013-05-29 13:00:00,81.5,65.3,30.14,SSE,159,0.0,4.0,58,0.00,,---,0.00,VWS V14.00,2013-05-29 17:00:00,
2013-05-29 13:05:00,81.5,63.8,30.14,South,181,1.0,4.0,55,0.00,,---,0.00,VWS V14.00,2013-05-29 17:05:00,
2013-05-29 13:10:00,81.2,63.0,30.14,West,271,0.0,2.0,54,0.00,,---,0.00,VWS V14.00,2013-05-29 17:10:00,
2013-05-29 13:15:00,81.1,61.3,30.14,North,5,0.0,4.0,51,0.00,,---,0.00,VWS V14.00,2013-05-29 17:15:00,
2013-05-29 13:20:00,81.2,64.0,30.14,WNW,300,0.0,4.0,56,0.00,,---,0.00,VWS V14.00,2013-05-29 17:20:00,
2013-05-29 13:25:00,81.4,64.2,30.14,SSE,165,0.0,4.0,56,0.00,,---,0.00,VWS V14.00,2013-05-29 17:25:00,
2013-05-29 13:30:00,82.0,64.8,30.13,SSE,161,0.0,4.0,56,0.00,,---,0.00,VWS V14.00,2013-05-29 17:30:00,
2013-05-29 13:35:00,82.8,63.9,30.13,SE,144,0.0,4.0,53,0.00,,---,0.00,VWS V14.00,2013-05-29 17:35:00,
2013-05-29 13:40:00,82.9,65.6,30.13,SE,134,2.0,2.0,56,0.00,,---,0.00,VWS V14.00,2013-05-29 17:40:00,
2013-05-29 13:45:00,81.9,63.6,30.13,SSE,165,0.0,4.0,54,0.00,,---,0.00,VWS V14.00,2013-05-29 17:45:00,
2013-05-29 13:50:00,81.4,63.2,30.13,SSE,162,0.0,7.0,54,0.00,,---,0.00,VWS V14.00,2013-05-29 17:50:00,
2013-05-29 13:55:00,81.8,65.6,30.13,SE,138,0.0,7.0,58,0.00,,---,0.00,VWS V14.00,2013-05-29 17:55:00,
2013-05-29 14:00:00,82.1,63.3,30.13,SSE,152,1.0,7.0,53,0.00,,---,0.00,VWS V14.00,2013-05-29 18:00:00,
2013-05-29 14:05:00,82.3,66.6,30.13,SSE,159,1.0,7.0,59,0.00,,---,0.00,VWS V14.00,2013-05-29 18:05:00,
2013-05-29 14:10:00,82.3,65.6,30.12,SSW,193,0.0,4.0,57,0.00,,---,0.00,VWS V14.00,2013-05-29 18:10:00,
2013-05-29 14:15:00,82.0,63.7,30.13,SSW,194,0.0,4.0,54,0.00,,---,0.00,VWS V14.00,2013-05-29 18:15:00,
2013-05-29 14:20:00,82.4,63.6,30.12,South,188,0.0,4.0,53,0.00,,---,0.00,VWS V14.00,2013-05-29 18:20:00,
2013-05-29 14:25:00,82.9,64.6,30.12,SSE,151,0.0,4.0,54,0.00,,---,0.00,VWS V14.00,2013-05-29 18:25:00,
2013-05-29 14:30:00,83.1,64.8,30.11,SE,136,0.0,4.0,54,0.00,,---,0.00,VWS V14.00,2013-05-29 18:30:00,
2013-05-29 14:35:00,82.7,64.9,30.11,SE,136,1.0,4.0,55,0.00,,---,0.00,VWS V14.00,2013-05-29 18:35:00,
2013-05-29 14:40:00,82.6,65.3,30.12,SE,135,0.0,1.0,56,0.00,,---,0.00,VWS V14.00,2013-05-29 18:40:00,
2013-05-29 14:45:00,82.3,62.4,30.11,SSW,205,0.0,1.0,51,0.00,,---,0.00,VWS V14.00,2013-05-29 18:45:00,
2013-05-29 14:50:00,82.1,62.8,30.11,SSE,153,0.0,3.0,52,0.00,,---,0.00,VWS V14.00,2013-05-29 18:50:00,
2013-05-29 14:55:00,82.2,63.4,30.11,WSW,252,0.0,3.0,53,0.00,,---,0.00,VWS V14.00,2013-05-29 18:55:00,
2013-05-29 15:00:00,82.5,63.7,30.10,WSW,252,0.0,3.0,53,0.00,,---,0.00,VWS V14.00,2013-05-29 19:00:00,
2013-05-29 15:05:00,82.4,65.7,30.10,SSW,202,0.0,3.0,57,0.00,,---,0.00,VWS V14.00,2013-05-29 19:05:00,
2013-05-29 15:10:00,82.3,66.1,30.11,SSW,202,0.0,0.0,58,0.00,,---,0.00,VWS V14.00,2013-05-29 19:10:00,
2013-05-29 15:15:00,81.9,61.5,30.11,ESE,103,0.0,4.0,50,0.00,,---,0.00,VWS V14.00,2013-05-29 19:15:00,
2013-05-29 15:20:00,81.6,62.3,30.11,NNW,337,0.0,4.0,52,0.00,,---,0.00,VWS V14.00,2013-05-29 19:20:00,
2013-05-29 15:25:00,81.8,65.1,30.10,SW,229,1.0,4.0,57,0.00,,---,0.00,VWS V14.00,2013-05-29 19:25:00,
2013-05-29 15:30:00,81.9,60.3,30.10,WNW,299,0.0,5.0,48,0.00,,---,0.00,VWS V14.00,2013-05-29 19:30:00,
2013-05-29 15:35:00,82.1,62.8,30.10,WNW,298,0.0,5.0,52,0.00,,---,0.00,VWS V14.00,2013-05-29 19:35:00,
2013-05-29 15:40:00,82.4,61.9,30.10,East,80,0.0,3.0,50,0.00,,---,0.00,VWS V14.00,2013-05-29 19:40:00,
2013-05-29 15:45:00,82.7,63.3,30.09,WSW,255,0.0,4.0,52,0.00,,---,0.00,VWS V14.00,2013-05-29 19:45:00,
2013-05-29 15:50:00,82.7,62.8,30.09,WSW,255,0.0,4.0,51,0.00,,---,0.00,VWS V14.00,2013-05-29 19:50:00,
2013-05-29 15:55:00,82.3,62.4,30.09,WSW,254,0.0,4.0,51,0.00,,---,0.00,VWS V14.00,2013-05-29 19:55:00,
2013-05-29 16:00:00,82.2,63.4,30.10,WSW,255,0.0,4.0,53,0.00,,---,0.00,VWS V14.00,2013-05-29 20:00:00,
2013-05-29 16:05:00,81.8,61.9,30.09,WNW,288,0.0,4.0,51,0.00,,---,0.00,VWS V14.00,2013-05-29 20:05:00,
2013-05-29 16:10:00,81.3,62.5,30.09,WNW,288,0.0,0.0,53,0.00,,---,0.00,VWS V14.00,2013-05-29 20:10:00,
2013-05-29 16:15:00,81.0,62.3,30.09,WNW,290,2.0,2.0,53,0.00,,---,0.00,VWS V14.00,2013-05-29 20:15:00,
2013-05-29 16:20:00,80.6,61.9,30.09,NNW,344,3.0,4.0,53,0.00,,---,0.00,VWS V14.00,2013-05-29 20:20:00,
2013-05-29 16:25:00,80.2,62.6,30.09,SW,225,0.0,4.0,55,0.00,,---,0.00,VWS V14.00,2013-05-29 20:25:00,
2013-05-29 16:30:00,80.2,65.1,30.09,SW,225,0.0,4.0,60,0.00,,---,0.00,VWS V14.00,2013-05-29 20:30:00,
2013-05-29 16:35:00,80.7,63.6,30.08,SW,225,0.0,4.0,56,0.00,,---,0.00,VWS V14.00,2013-05-29 20:35:00,
2013-05-29 16:40:00,81.2,65.0,30.08,SW,225,0.0,0.0,58,0.00,,---,0.00,VWS V14.00,2013-05-29 20:40:00,
2013-05-29 16:45:00,81.6,62.8,30.08,SSW,210,0.0,1.0,53,0.00,,---,0.00,VWS V14.00,2013-05-29 20:45:00,
2013-05-29 16:50:00,81.8,62.5,30.08,South,180,0.0,3.0,52,0.00,,---,0.00,VWS V14.00,2013-05-29 20:50:00,
2013-05-29 16:55:00,82.0,63.2,30.08,NW,325,0.0,3.0,53,0.00,,---,0.00,VWS V14.00,2013-05-29 20:55:00,
2013-05-29 17:00:00,82.1,64.3,30.08,WNW,292,0.0,3.0,55,0.00,,---,0.00,VWS V14.00,2013-05-29 21:00:00,
2013-05-29 17:05:00,82.0,62.7,30.08,WNW,295,1.0,3.0,52,0.00,,---,0.00,VWS V14.00,2013-05-29 21:05:00,
2013-05-29 17:10:00,81.8,63.0,30.09,WNW,294,2.0,4.0,53,0.00,,---,0.00,VWS V14.00,2013-05-29 21:10:00,
2013-05-29 17:15:00,81.5,61.7,30.08,WNW,292,0.0,4.0,51,0.00,,---,0.00,VWS V14.00,2013-05-29 21:15:00,
2013-05-29 17:20:00,81.4,63.2,30.08,WNW,293,0.0,4.0,54,0.00,,---,0.00,VWS V14.00,2013-05-29 21:20:00,
2013-05-29 17:25:00,81.4,62.6,30.08,WNW,291,0.0,4.0,53,0.00,,---,0.00,VWS V14.00,2013-05-29 21:25:00,
2013-05-29 17:30:00,81.7,64.5,30.08,WNW,291,0.0,4.0,56,0.00,,---,0.00,VWS V14.00,2013-05-29 21:30:00,
2013-05-29 17:35:00,81.9,65.2,30.08,WNW,292,0.0,4.0,57,0.00,,---,0.00,VWS V14.00,2013-05-29 21:35:00,
2013-05-29 17:40:00,82.1,62.2,30.08,SW,219,0.0,3.0,51,0.00,,---,0.00,VWS V14.00,2013-05-29 21:40:00,
2013-05-29 17:45:00,82.1,63.8,30.08,SW,219,0.0,3.0,54,0.00,,---,0.00,VWS V14.00,2013-05-29 21:45:00,
2013-05-29 17:50:00,82.0,62.1,30.09,WNW,294,0.0,3.0,51,0.00,,---,0.00,VWS V14.00,2013-05-29 21:50:00,
2013-05-29 17:55:00,81.7,60.7,30.08,WSW,239,1.0,3.0,49,0.00,,---,0.00,VWS V14.00,2013-05-29 21:55:00,
2013-05-29 18:00:00,81.4,61.5,30.09,ENE,63,0.0,3.0,51,0.00,,---,0.00,VWS V14.00,2013-05-29 22:00:00,
2013-05-29 18:05:00,81.4,61.5,30.09,NNW,330,2.0,3.0,51,0.00,,---,0.00,VWS V14.00,2013-05-29 22:05:00,
2013-05-29 18:10:00,81.6,60.6,30.09,NW,325,0.0,3.0,49,0.00,,---,0.00,VWS V14.00,2013-05-29 22:10:00,
2013-05-29 18:15:00,81.5,60.5,30.09,NW,308,0.0,3.0,49,0.00,,---,0.00,VWS V14.00,2013-05-29 22:15:00,
2013-05-29 18:20:00,81.4,61.5,30.09,NW,308,0.0,3.0,51,0.00,,---,0.00,VWS V14.00,2013-05-29 22:20:00,
2013-05-29 18:25:00,80.9,61.6,30.09,NW,308,0.0,3.0,52,0.00,,---,0.00,VWS V14.00,2013-05-29 22:25:00,
2013-05-29 18:30:00,80.5,61.3,30.09,NW,308,0.0,3.0,52,0.00,,---,0.00,VWS V14.00,2013-05-29 22:30:00,
2013-05-29 18:35:00,79.9,61.3,30.09,NW,308,0.0,3.0,53,0.00,,---,0.00,VWS V14.00,2013-05-29 22:35:00,
2013-05-29 18:40:00,79.3,58.5,30.10,NW,308,0.0,1.0,49,0.00,,---,0.00,VWS V14.00,2013-05-29 22:40:00,
2013-05-29 18:45:00,78.9,59.8,30.10,NW,308,0.0,1.0,52,0.00,,---,0.00,VWS V14.00,2013-05-29 22:45:00,
2013-05-29 18:50:00,78.6,59.5,30.09,NW,308,0.0,1.0,52,0.00,,---,0.00,VWS V14.00,2013-05-29 22:50:00,
2013-05-29 18:55:00,78.1,58.5,30.10,WSW,246,0.0,4.0,51,0.00,,---,0.00,VWS V14.00,2013-05-29 22:55:00,
2013-05-29 19:00:00,77.6,58.1,30.10,SW,234,0.0,4.0,51,0.00,,---,0.00,VWS V14.00,2013-05-29 23:00:00,
2013-05-29 19:05:00,77.2,58.2,30.10,SW,230,1.0,4.0,52,0.00,,---,0.00,VWS V14.00,2013-05-29 23:05:00,
2013-05-29 19:10:00,76.8,57.9,30.09,SSW,211,0.0,2.0,52,0.00,,---,0.00,VWS V14.00,2013-05-29 23:10:00,
2013-05-29 19:15:00,76.5,57.6,30.10,SSW,211,1.0,2.0,52,0.00,,---,0.00,VWS V14.00,2013-05-29 23:15:00,
2013-05-29 19:20:00,76.2,56.8,30.10,WSW,249,0.0,3.0,51,0.00,,---,0.00,VWS V14.00,2013-05-29 23:20:00,
2013-05-29 19:25:00,75.9,56.5,30.10,WSW,248,0.0,3.0,51,0.00,,---,0.00,VWS V14.00,2013-05-29 23:25:00,
2013-05-29 19:30:00,75.7,56.8,30.11,South,184,0.0,3.0,52,0.00,,---,0.00,VWS V14.00,2013-05-29 23:30:00,
2013-05-29 19:35:00,75.5,56.7,30.11,SSW,202,0.0,5.0,52,0.00,,---,0.00,VWS V14.00,2013-05-29 23:35:00,
2013-05-29 19:40:00,75.3,57.0,30.11,WSW,250,0.0,1.0,53,0.00,,---,0.00,VWS V14.00,2013-05-29 23:40:00,
2013-05-29 19:45:00,75.1,57.3,30.11,WSW,251,0.0,2.0,54,0.00,,---,0.00,VWS V14.00,2013-05-29 23:45:00,
2013-05-29 19:50:00,74.9,57.7,30.11,WSW,250,0.0,2.0,55,0.00,,---,0.00,VWS V14.00,2013-05-29 23:50:00,
2013-05-29 19:55:00,74.7,57.5,30.12,WSW,251,0.0,2.0,55,0.00,,---,0.00,VWS V14.00,2013-05-29 23:55:00,
2013-05-29 20:00:00,74.5,57.3,30.12,WSW,250,0.0,2.0,55,0.00,,---,0.00,VWS V14.00,2013-05-30 00:00:00,
2013-05-29 20:05:00,74.3,57.6,30.12,WSW,251,0.0,2.0,56,0.00,,---,0.00,VWS V14.00,2013-05-30 00:05:00,
2013-05-29 20:10:00,73.9,57.2,30.11,West,271,0.0,4.0,56,0.00,,---,0.00,VWS V14.00,2013-05-30 00:10:00,
2013-05-29 20:15:00,73.6,57.0,30.11,West,271,0.0,4.0,56,0.00,,---,0.00,VWS V14.00,2013-05-30 00:15:00,
2013-05-29 20:20:00,73.4,57.3,30.11,West,271,1.0,4.0,57,0.00,,---,0.00,VWS V14.00,2013-05-30 00:20:00,
2013-05-29 20:25:00,73.1,57.9,30.12,West,271,2.0,4.0,59,0.00,,---,0.00,VWS V14.00,2013-05-30 00:25:00,
2013-05-29 20:30:00,72.9,57.8,30.12,West,271,0.0,4.0,59,0.00,,---,0.00,VWS V14.00,2013-05-30 00:30:00,
2013-05-29 20:35:00,72.7,57.6,30.12,West,271,0.0,4.0,59,0.00,,---,0.00,VWS V14.00,2013-05-30 00:35:00,
2013-05-29 20:40:00,72.4,57.8,30.12,West,271,0.0,1.0,60,0.00,,---,0.00,VWS V14.00,2013-05-30 00:40:00,
2013-05-29 20:45:00,72.2,57.1,30.13,West,271,0.0,1.0,59,0.00,,---,0.00,VWS V14.00,2013-05-30 00:45:00,
2013-05-29 20:50:00,72.0,57.4,30.13,West,271,0.0,1.0,60,0.00,,---,0.00,VWS V14.00,2013-05-30 00:50:00,
2013-05-29 20:55:00,71.8,57.2,30.13,West,271,1.0,1.0,60,0.00,,---,0.00,VWS V14.00,2013-05-30 00:55:00,
2013-05-29 21:00:00,71.6,57.5,30.13,SW,215,0.0,5.0,61,0.00,,---,0.00,VWS V14.00,2013-05-30 01:00:00,
2013-05-29 21:05:00,71.3,57.2,30.14,West,279,0.0,5.0,61,0.00,,---,0.00,VWS V14.00,2013-05-30 01:05:00,
2013-05-29 21:10:00,71.2,57.5,30.13,NW,319,3.0,4.0,62,0.00,,---,0.00,VWS V14.00,2013-05-30 01:10:00,
2013-05-29 21:15:00,71.0,58.2,30.13,West,281,2.0,4.0,64,0.00,,---,0.00,VWS V14.00,2013-05-30 01:15:00,
2013-05-29 21:20:00,70.8,58.0,30.13,WNW,283,0.0,4.0,64,0.00,,---,0.00,VWS V14.00,2013-05-30 01:20:00,
2013-05-29 21:25:00,70.6,58.3,30.13,WNW,284,0.0,4.0,65,0.00,,---,0.00,VWS V14.00,2013-05-30 01:25:00,
2013-05-29 21:30:00,70.4,58.1,30.13,NNW,336,1.0,4.0,65,0.00,,---,0.00,VWS V14.00,2013-05-30 01:30:00,
2013-05-29 21:35:00,70.2,58.3,30.13,NNW,327,2.0,5.0,66,0.00,,---,0.00,VWS V14.00,2013-05-30 01:35:00,
2013-05-29 21:40:00,70.0,58.5,30.13,NW,325,1.0,4.0,67,0.00,,---,0.00,VWS V14.00,2013-05-30 01:40:00,
2013-05-29 21:45:00,69.9,58.5,30.14,NW,325,2.0,4.0,67,0.00,,---,0.00,VWS V14.00,2013-05-30 01:45:00,
2013-05-29 21:50:00,69.8,58.4,30.14,NW,325,0.0,4.0,67,0.00,,---,0.00,VWS V14.00,2013-05-30 01:50:00,
2013-05-29 21:55:00,69.6,58.2,30.14,SW,214,0.0,4.0,67,0.00,,---,0.00,VWS V14.00,2013-05-30 01:55:00,
2013-05-29 22:00:00,69.6,58.6,30.14,NNW,340,0.0,5.0,68,0.00,,---,0.00,VWS V14.00,2013-05-30 02:00:00,
2013-05-29 22:05:00,69.5,58.5,30.14,NNW,346,0.0,5.0,68,0.00,,---,0.00,VWS V14.00,2013-05-30 02:05:00,
2013-05-29 22:10:00,69.4,58.4,30.14,ENE,74,0.0,1.0,68,0.00,,---,0.00,VWS V14.00,2013-05-30 02:10:00,
2013-05-29 22:15:00,69.4,58.8,30.14,ENE,74,0.0,1.0,69,0.00,,---,0.00,VWS V14.00,2013-05-30 02:15:00,
2013-05-29 22:20:00,69.3,59.1,30.14,ENE,63,1.0,2.0,70,0.00,,---,0.00,VWS V14.00,2013-05-30 02:20:00,
2013-05-29 22:25:00,69.2,59.4,30.15,ENE,63,0.0,2.0,71,0.00,,---,0.00,VWS V14.00,2013-05-30 02:25:00,
2013-05-29 22:30:00,69.0,59.2,30.14,NNW,328,1.0,4.0,71,0.00,,---,0.00,VWS V14.00,2013-05-30 02:30:00,
2013-05-29 22:35:00,68.9,59.1,30.14,ENE,70,0.0,4.0,71,0.00,,---,0.00,VWS V14.00,2013-05-30 02:35:00,
2013-05-29 22:40:00,68.8,59.0,30.14,SE,125,0.0,1.0,71,0.00,,---,0.00,VWS V14.00,2013-05-30 02:40:00,
2013-05-29 22:45:00,68.7,59.3,30.15,SE,125,0.0,1.0,72,0.00,,---,0.00,VWS V14.00,2013-05-30 02:45:00,
2013-05-29 22:50:00,68.6,59.2,30.15,NNW,341,0.0,3.0,72,0.00,,---,0.00,VWS V14.00,2013-05-30 02:50:00,
2013-05-29 22:55:00,68.5,59.1,30.15,NNW,340,3.0,3.0,72,0.00,,---,0.00,VWS V14.00,2013-05-30 02:55:00,
2013-05-29 23:00:00,68.3,58.9,30.15,NNW,330,0.0,4.0,72,0.00,,---,0.00,VWS V14.00,2013-05-30 03:00:00,
2013-05-29 23:05:00,68.1,59.1,30.15,NE,44,1.0,4.0,73,0.00,,---,0.00,VWS V14.00,2013-05-30 03:05:00,
2013-05-29 23:10:00,67.9,59.3,30.14,NNW,334,1.0,4.0,74,0.00,,---,0.00,VWS V14.00,2013-05-30 03:10:00,
2013-05-29 23:15:00,67.6,59.0,30.14,West,277,0.0,4.0,74,0.00,,---,0.00,VWS V14.00,2013-05-30 03:15:00,
2013-05-29 23:20:00,67.4,59.2,30.14,NNE,17,0.0,4.0,75,0.00,,---,0.00,VWS V14.00,2013-05-30 03:20:00,
2013-05-29 23:25:00,67.2,59.4,30.14,NNW,341,1.0,4.0,76,0.00,,---,0.00,VWS V14.00,2013-05-30 03:25:00,
2013-05-29 23:30:00,67.0,59.6,30.14,SW,221,0.0,4.0,77,0.00,,---,0.00,VWS V14.00,2013-05-30 03:30:00,
2013-05-29 23:35:00,66.7,59.6,30.14,West,273,0.0,5.0,78,0.00,,---,0.00,VWS V14.00,2013-05-30 03:35:00,
2013-05-29 23:40:00,66.6,59.5,30.13,WSW,253,0.0,4.0,78,0.00,,---,0.00,VWS V14.00,2013-05-30 03:40:00,
2013-05-29 23:45:00,66.4,59.7,30.14,WNW,294,0.0,5.0,79,0.00,,---,0.00,VWS V14.00,2013-05-30 03:45:00,
2013-05-29 23:50:00,66.2,59.5,30.14,ENE,61,0.0,5.0,79,0.00,,---,0.00,VWS V14.00,2013-05-30 03:50:00,
2013-05-29 23:55:00,66.1,59.4,30.14,East,84,1.0,7.0,79,0.00,,---,0.00,VWS V14.00,2013-05-30 03:55:00,